[[{"header":{"parameterUnit":"m.s-1","parameterCategory":1,"la1":30.2991,"la2":30.254,"lo1":-89.0895,"lo2":-89.0444,"dy":0.0017,"dx":0.0017,"nx":28,"ny":28,"refTime":"2025-01-15T09:00:00:Z","depth":0,"parameterNumber":2,"parameterNumberName":"U-component_of_WINDS"},"data":[0,0,0,0,0,0,0,0,0,0,0,0,0,0,0,0,0,0,0,0,0,0,0,0,0,0,0,0,0,0,0,0,0,0,0,0,0,0,0,0,0,0,0,0,0,0,0,0,0,0,0,0,0,0,0,0,0,0,-3.3904,-3.3906,0,-3.4087,-3.4089,-3.4091,-3.4037,-3.4033,-3.4029,-3.4025,-3.4221,-3.423,-3.4239,0,0,0,0,0,0,0,0,0,0,0,0,0,-3.3512,-3.3519,-3.3903,-3.3906,-3.3908,-3.4087,-3.4089,-3.4092,-3.4037,-3.4033,-3.4028,-3.4024,-3.4218,-3.4229,-3.4239,0,0,0,0,0,0,0,0,0,0,0,0,0,-3.3688,-3.3522,-3.3903,-3.3902,-3.3904,-3.4086,-3.4089,-3.4093,-3.4038,-3.4033,-3.4027,-3.4021,-3.4215,-3.4228,-3.4241,-3.4438,0,0,-3.4281,-3.4287,0,0,0,0,0,0,0,0,-3.3678,-3.3702,-3.39,-3.3902,-3.3905,-3.4033,-3.4023,-3.4209,-3.404,-3.3988,-3.4025,-3.4019,-3.4164,-3.4181,-3.4228,-3.4447,-3.4455,-3.4282,-3.429,-3.4296,-3.43,0,0,0,0,0,0,0,-3.3666,-3.3694,-3.3976,-3.3903,-3.3906,-3.3895,-3.3913,-3.4058,-3.4106,-3.3992,-3.3988,-3.401,-3.4164,-3.4216,-3.4232,-3.4458,-3.4282,-3.4294,-3.4302,-3.4307,-3.4848,-3.4855,0,0,0,0,0,0,-3.3651,-3.3684,-3.397,-3.3982,-3.3774,-3.3906,-3.3927,-3.3998,-3.4104,-3.4115,-3.4015,-3.4007,-3.4196,-3.4217,-3.4239,-3.4478,-3.4296,-3.4308,-3.4316,-3.4842,-3.485,-3.4857,0,0,0,0,0,0,-3.3643,-3.3677,-3.3963,-3.3832,-3.3868,-3.3919,-3.3999,-3.4004,-3.4056,-3.4122,-3.4131,-3.4058,-3.4192,-3.4221,-3.4388,-3.4484,-3.4314,-3.4326,-3.4834,-3.4844,-3.4853,-3.4956,0,0,0,0,0,0,-3.3632,-3.3674,-3.3748,-3.3834,-3.3875,-3.4108,-3.4005,-3.4012,-3.4078,-3.4069,-3.4165,-3.4175,-3.419,-3.4369,-3.4402,-3.4499,-3.4336,-3.4826,-3.4839,-3.485,-3.4945,-3.4968,-3.4988,0,0,0,0,0,-3.3618,-3.3771,-3.3752,-3.3787,-3.3968,-3.4113,-3.4137,-3.4148,-3.4086,-3.4162,-3.4204,-3.4172,-3.4467,-3.4387,-3.4423,-3.4526,-3.482,-3.4835,-3.4849,-3.4935,-3.4964,-3.4988,0,0,0,0,0,0,-3.3699,-3.3783,-3.3763,-3.3948,-3.4023,-3.4104,-3.42,-3.4178,-3.4275,-3.4264,-3.4276,-3.4298,-3.447,-3.4514,-3.4423,-3.4722,-3.4635,-3.4657,-3.4688,-3.4715,-3.4737,-3.4724,-3.4347,0,0,0,0,0,-3.3737,-3.3846,-3.3914,-3.4072,-3.411,-3.4149,-3.4212,-3.4214,-3.4294,-3.4327,-3.4381,-3.4462,-3.4573,-3.4646,-3.4752,-3.4949,-3.4971,-3.5038,-3.506,-3.5078,-3.5098,-3.5207,-3.5239,-3.4905,-3.4905,-3.4904,0,0,-3.382,-3.3879,-3.3948,-3.4089,-3.4148,-3.4263,-3.4176,-3.4301,-3.4387,-3.4347,-3.4508,-3.4551,-3.4642,-3.4826,-3.491,-3.4868,-3.5194,-3.5096,-3.511,-3.5121,-3.5226,-3.5257,-3.5285,-3.4915,-3.4913,-3.4911,0,0,-3.403,-3.4084,-3.4221,-3.4281,-3.437,-3.4394,-3.4427,-3.4511,-3.4537,-3.4698,-3.467,-3.4773,-3.4964,-3.503,-3.5089,-3.5321,-3.5297,-3.5355,-3.5472,-3.5578,-3.5604,-3.5628,-3.5713,-3.5743,-3.5375,-3.5375,-3.5375,0,-3.4122,-3.4291,-3.4296,-3.4423,-3.4487,-3.4451,-3.4592,-3.4651,-3.4771,-3.4817,-3.4768,-3.5006,-3.5064,-3.5264,-3.532,-3.5368,-3.5408,-3.5346,-3.5599,-3.5623,-3.5645,-3.5727,-3.5758,-3.5382,-3.5381,-3.538,-3.538,0,-3.4402,-3.4519,-3.462,-3.4734,-3.4809,-3.4942,-3.4969,-3.5044,-3.5039,-3.5069,-3.5235,-3.5303,-3.5422,-3.5469,-3.5466,-3.5669,-3.5641,-3.5595,-3.5509,-3.5684,-3.5761,-3.5792,-3.5391,-3.5389,-3.5387,-3.5385,0,0,-3.4671,-3.4783,-3.482,-3.4872,-3.4966,-3.5059,-3.5191,-3.5304,-3.537,-3.5454,-3.5567,-3.5727,-3.5686,-3.5752,-3.5756,-3.5849,-3.6031,-3.5793,-3.5795,-3.5837,-3.6261,-3.6297,-3.6333,-3.6014,-3.602,-3.6024,-3.6254,0,-3.489,-3.512,-3.5127,-3.5338,-3.5448,-3.5415,-3.553,-3.5602,-3.5633,-3.5733,-3.5768,-3.5882,-3.5817,-3.5858,-3.5948,-3.599,-3.6117,-3.5973,-3.6122,-3.6127,-3.6103,-3.6372,-3.6411,-3.6624,-3.6284,-3.6289,-3.6293,0,-3.5178,-3.5267,-3.5489,-3.5567,-3.5614,-3.5717,-3.5822,-3.5916,-3.5997,-3.6014,-3.6087,-3.6077,-3.6214,-3.612,-3.631,-3.6212,-3.6273,-3.6303,-3.6311,-3.6329,-3.6223,-3.64,-3.6692,-3.6726,-3.634,-3.6336,-3.6333,0,-3.5355,-3.5531,-3.5686,-3.5731,-3.5826,-3.5899,-3.5943,-3.6017,-3.6085,-3.6178,-3.6222,-3.633,-3.639,-3.6474,-3.6494,-3.6423,-3.6686,-3.6593,-3.6706,-3.6706,-3.6765,-3.6762,-3.7075,-3.68,-3.6799,-3.6799,-3.6798,0,-3.5601,-3.5738,-3.5767,-3.5863,-3.6016,-3.6023,-3.6176,-3.6214,-3.6281,-3.6385,-3.6363,-3.6462,-3.6481,-3.6585,-3.6601,-3.6758,-3.6785,-3.6803,-3.6807,-3.6807,-3.6805,-3.685,-3.6837,-3.6807,-3.6805,-3.6804,-3.6802,0,-3.5826,-3.585,-3.6018,-3.6092,-3.6114,-3.6225,-3.629,-3.6383,-3.641,-3.6543,-3.6574,-3.6618,-3.6739,-3.6766,-3.691,-3.6921,-3.7108,-3.7095,-3.708,-3.708,-3.7192,-3.7182,-3.7548,-3.7597,-3.7286,-3.7289,-3.7292,0,-3.5983,-3.6088,-3.6173,-3.624,-3.6286,-3.6394,-3.6463,-3.6473,-3.6546,-3.6645,-3.6727,-3.6844,-3.694,-3.7134,-3.7181,-3.7291,-3.7283,-3.7403,-3.73,-3.7297,-3.7288,-3.7283,-3.7294,-3.7424,-3.7428,-3.743,-3.7433,0,-3.626,-3.6266,-3.6364,-3.6467,-3.6548,-3.663,-3.6708,-3.6765,-3.6786,-3.6869,-3.6991,-3.7064,-3.721,-3.7328,-3.7438,-3.7485,-3.7465,-3.7464,-3.7496,-3.75,-3.7488,-3.7498,-3.7137,-3.7457,-3.7454,-3.7452,-3.7451,-3.745,-3.6458,-3.655,-3.6624,-3.6734,-3.6793,-3.6866,-3.6957,-3.6994,-3.7095,-3.7213,-3.7213,-3.7347,-3.7425,-3.757,-3.7624,-3.773,-3.7693,-3.7739,-3.7752,-3.7764,-3.7775,-3.7467,-3.775,-3.7749,-3.7748,-3.7748,-3.7747,0,-3.6736,-3.6781,-3.6882,-3.6991,-3.7078,-3.7045,-3.713,-3.7206,-3.7323,-3.7396,-3.7489,-3.7629,-3.7743,-3.7797,-3.791,-3.7985,-3.7978,-3.8015,-3.8011,-3.8023,-3.7801,-3.7762,-3.8018,-3.8018,-3.8018,-3.8018,-3.8018,-3.8018,-3.6892,-3.7045,-3.706,-3.7243,-3.7288,-3.7416,-3.7468,-3.7536,-3.7594,-3.7751,-3.7845,-3.7878,-3.7944,-3.8062,-3.8165,-3.8178,-3.8222,-3.8265,-3.8273,-3.8066,-3.8038,-3.8012,-3.7976,-3.8273,-3.8274,-3.8487,-3.8489,-3.849]},{"header":{"parameterUnit":"m.s-1","parameterCategory":1,"la1":30.2991,"la2":30.254,"lo1":-89.0895,"lo2":-89.0444,"dy":0.0017,"dx":0.0017,"nx":28,"ny":28,"refTime":"2025-01-15T09:00:00:Z","depth":0,"parameterNumber":3,"parameterNumberName":"V-component_of_WINDS"},"data":[0,0,0,0,0,0,0,0,0,0,0,0,0,0,0,0,0,0,0,0,0,0,0,0,0,0,0,0,0,0,0,0,0,0,0,0,0,0,0,0,0,0,0,0,0,0,0,0,0,0,0,0,0,0,0,0,0,0,-2.9445,-2.9445,0,-2.9452,-2.9452,-2.9452,-2.942,-2.9419,-2.9418,-2.9417,-2.9424,-2.9425,-2.9426,0,0,0,0,0,0,0,0,0,0,0,0,0,-2.9403,-2.9404,-2.9445,-2.9445,-2.9445,-2.9452,-2.9452,-2.9452,-2.942,-2.9419,-2.9418,-2.9417,-2.9423,-2.9425,-2.9426,0,0,0,0,0,0,0,0,0,0,0,0,0,-2.9417,-2.9404,-2.9445,-2.943,-2.9429,-2.9452,-2.9452,-2.9452,-2.942,-2.9419,-2.9418,-2.9416,-2.9423,-2.9425,-2.9426,-2.9463,0,0,-2.9431,-2.9431,0,0,0,0,0,0,0,0,-2.9416,-2.9418,-2.9432,-2.9431,-2.943,-2.9433,-2.9439,-2.9456,-2.9421,-2.9424,-2.9417,-2.9416,-2.9428,-2.9429,-2.9433,-2.9464,-2.9464,-2.9431,-2.9432,-2.9433,-2.9433,0,0,0,0,0,0,0,-2.9415,-2.9418,-2.9447,-2.9432,-2.9431,-2.9422,-2.9423,-2.9442,-2.9433,-2.9423,-2.9421,-2.9422,-2.9427,-2.9432,-2.9433,-2.9464,-2.9431,-2.9432,-2.9433,-2.9434,-2.9524,-2.9525,0,0,0,0,0,0,-2.9416,-2.9417,-2.9447,-2.9448,-2.9419,-2.9424,-2.9425,-2.9434,-2.9433,-2.9432,-2.9423,-2.9421,-2.943,-2.9432,-2.9433,-2.9476,-2.9433,-2.9434,-2.9435,-2.9522,-2.9524,-2.9525,0,0,0,0,0,0,-2.9415,-2.9419,-2.9447,-2.9432,-2.9435,-2.9427,-2.9437,-2.9435,-2.9439,-2.9433,-2.9431,-2.943,-2.9429,-2.9431,-2.9456,-2.9476,-2.9435,-2.9436,-2.952,-2.9523,-2.9525,-2.9562,0,0,0,0,0,0,-2.9414,-2.9419,-2.9434,-2.9432,-2.9436,-2.947,-2.9438,-2.9436,-2.9442,-2.9439,-2.9439,-2.9438,-2.9428,-2.9454,-2.9457,-2.9477,-2.9437,-2.9519,-2.9521,-2.9524,-2.9559,-2.9565,-2.9571,0,0,0,0,0,-2.9413,-2.9444,-2.9435,-2.9438,-2.9454,-2.9471,-2.9473,-2.9461,-2.9444,-2.9458,-2.9454,-2.9438,-2.9473,-2.9456,-2.946,-2.9481,-2.9517,-2.9521,-2.9524,-2.9556,-2.9564,-2.957,0,0,0,0,0,0,-2.9448,-2.9444,-2.9433,-2.9465,-2.9469,-2.9466,-2.9483,-2.947,-2.9478,-2.9475,-2.946,-2.946,-2.9487,-2.9487,-2.9468,-2.9516,-2.9492,-2.9496,-2.9516,-2.9523,-2.9528,-2.9528,-2.9439,0,0,0,0,0,-2.946,-2.9475,-2.947,-2.9498,-2.9501,-2.9492,-2.9499,-2.9489,-2.9492,-2.9494,-2.9492,-2.9495,-2.9507,-2.9515,-2.9525,-2.9559,-2.9558,-2.9575,-2.9581,-2.9585,-2.9589,-2.9605,-2.9612,-2.9536,-2.9536,-2.9536,0,0,-2.9484,-2.9483,-2.9494,-2.9505,-2.9507,-2.9522,-2.9493,-2.9511,-2.9521,-2.9496,-2.9519,-2.9518,-2.952,-2.9549,-2.9562,-2.955,-2.961,-2.959,-2.9593,-2.9594,-2.9609,-2.9617,-2.9623,-2.9538,-2.9538,-2.9538,0,0,-2.9535,-2.9536,-2.956,-2.9562,-2.9564,-2.9558,-2.9563,-2.9562,-2.956,-2.9583,-2.9564,-2.9576,-2.9597,-2.9599,-2.9603,-2.9654,-2.9639,-2.9658,-2.9688,-2.9704,-2.971,-2.9715,-2.9732,-2.9738,-2.9661,-2.9662,-2.9662,0,-2.9564,-2.9586,-2.9573,-2.9591,-2.9597,-2.9574,-2.9597,-2.96,-2.9606,-2.961,-2.9596,-2.9621,-2.9621,-2.965,-2.9662,-2.9666,-2.9671,-2.9657,-2.971,-2.9715,-2.972,-2.9736,-2.9742,-2.9664,-2.9664,-2.9663,-2.9663,0,-2.9622,-2.9637,-2.9655,-2.9661,-2.9669,-2.9689,-2.9678,-2.9687,-2.9677,-2.9672,-2.9694,-2.9694,-2.9703,-2.971,-2.97,-2.9736,-2.9728,-2.9713,-2.9688,-2.973,-2.9744,-2.975,-2.9667,-2.9666,-2.9665,-2.9665,0,0,-2.9696,-2.9693,-2.97,-2.9702,-2.9702,-2.9714,-2.9733,-2.9742,-2.9749,-2.9754,-2.9769,-2.9786,-2.9771,-2.9776,-2.9766,-2.978,-2.9819,-2.9763,-2.9763,-2.9772,-2.9857,-2.9869,-2.9876,-2.9809,-2.981,-2.9811,-2.9857,0,-2.9745,-2.9777,-2.9765,-2.9798,-2.9811,-2.979,-2.9806,-2.9808,-2.9803,-2.9814,-2.9809,-2.9821,-2.9801,-2.9803,-2.9816,-2.9811,-2.9836,-2.9808,-2.9822,-2.9823,-2.9821,-2.9884,-2.9896,-2.9939,-2.9863,-2.9864,-2.9864,0,-2.9807,-2.9813,-2.9847,-2.9844,-2.9849,-2.9864,-2.987,-2.9881,-2.9882,-2.9878,-2.9882,-2.9869,-2.9887,-2.9862,-2.9886,-2.9867,-2.9872,-2.9871,-2.9872,-2.9873,-2.9846,-2.9885,-2.9953,-2.9959,-2.9873,-2.9873,-2.9872,0,-2.9856,-2.9873,-2.9895,-2.9897,-2.9895,-2.9905,-2.9905,-2.9905,-2.991,-2.9916,-2.9919,-2.9927,-2.9931,-2.9938,-2.9927,-2.991,-2.9951,-2.9927,-2.9947,-2.9948,-2.9957,-2.9956,-3.0025,-2.9962,-2.9961,-2.9961,-2.9961,0,-2.9912,-2.9933,-2.9917,-2.9931,-2.9953,-2.9939,-2.9962,-2.9959,-2.9959,-2.9971,-2.9953,-2.9965,-2.995,-2.996,-2.9952,-2.9972,-2.9974,-2.9971,-2.9968,-2.9972,-2.9972,-2.9974,-2.9971,-2.9963,-2.9963,-2.9962,-2.9962,0,-2.9971,-2.9961,-2.9983,-2.9978,-2.9977,-2.9994,-2.999,-3.0002,-2.9996,-3.0011,-3.0014,-3.0005,-3.0015,-3.0005,-3.0016,-3.001,-3.0037,-3.003,-3.0036,-3.0034,-3.0055,-3.0053,-3.0127,-3.0136,-3.0068,-3.0068,-3.0069,0,-3.0006,-3.0022,-3.0018,-3.0025,-3.0025,-3.0036,-3.0042,-3.0028,-3.0034,-3.0036,-3.0047,-3.0057,-3.0063,-3.0082,-3.0075,-3.0083,-3.0076,-3.0102,-3.0077,-3.008,-3.0075,-3.0074,-3.0075,-3.0107,-3.0107,-3.0108,-3.0109,0,-3.007,-3.0064,-3.0073,-3.0079,-3.0086,-3.009,-3.0093,-3.0099,-3.0085,-3.0093,-3.0103,-3.0109,-3.0119,-3.0128,-3.0133,-3.0132,-3.0118,-3.0116,-3.0121,-3.0125,-3.0127,-3.0125,-3.0049,-3.0115,-3.0114,-3.0114,-3.0113,-3.0113,-3.0118,-3.013,-3.0129,-3.0139,-3.0139,-3.0142,-3.0152,-3.0147,-3.0156,-3.0162,-3.0154,-3.0167,-3.0166,-3.0172,-3.0173,-3.0182,-3.0171,-3.0179,-3.0181,-3.0183,-3.0185,-3.0126,-3.0183,-3.0183,-3.0183,-3.0183,-3.0183,0,-3.018,-3.0178,-3.0187,-3.0191,-3.0198,-3.0183,-3.0186,-3.0192,-3.0204,-3.0205,-3.0211,-3.0223,-3.0231,-3.0225,-3.0232,-3.0241,-3.0234,-3.0243,-3.0242,-3.0242,-3.0195,-3.019,-3.0248,-3.0248,-3.0248,-3.0248,-3.0248,-3.0248,-3.0213,-3.0233,-3.0226,-3.0246,-3.0243,-3.0255,-3.0257,-3.026,-3.026,-3.0273,-3.028,-3.0276,-3.0274,-3.0281,-3.0287,-3.0285,-3.0288,-3.0299,-3.0295,-3.0252,-3.0245,-3.0239,-3.0234,-3.03,-3.0301,-3.034,-3.0341,-3.0341]}]]